Location: Guadanolo
(41.9167°N, 12.9333°E)
Time: 04:04:18
(UTC+00:00)

ATLAS 2AS CENTAUR R/B - Pass Details

Date: 16 September 2019
Orbit: 919 x 1292 km, 63.6° (Epoch: 18 October)

Event Time Altitude Azimuth Distance (km) Brightness Sun altitude
Rises 20:13:22 0° 317° (NW) 4,155 6.9 -31.3°
Reaches altitude 10° 20:16:34 10° 308° (NW) 3,135 6.0 -31.8°
Maximum altitude 20:22:53 31° 250° (WSW) 1,880 4.1 -32.7°
Enters shadow 20:24:52 27° 222° (SW) 2,002 4.1 -33.0°
